Location: Aurora Center
(43.5271°N, 98.5894°W)
Time: 10:00:27
(UTC-05:00)

Vanguard 1 Rocket - All Passes

Search period start: 14 July 2024 00:00
Search period end: 24 July 2024 00:00
Orbit: 650 x 4219 km, 34.3° (Epoch: 13 July)

Date Brightness Start Highest point End Pass type
(mag) Time Alt. Az. Time Alt. Az. Time Alt. Az.
14 Jul - 00:34:10 10° WSW 00:40:35 46° S 00:52:23 10° ESE visible
14 Jul - 02:58:15 10° W 03:06:56 35° SSW 03:22:05 10° SE visible
14 Jul - 05:26:25 10° WSW 05:34:46 17° SSW 05:45:47 10° S visible
14 Jul - 21:01:41 10° S 21:04:45 17° SSE 21:08:31 10° ESE daylight
14 Jul - 23:23:18 10° WSW 23:28:37 41° S 23:37:42 10° ESE visible
15 Jul - 01:46:44 10° WSW 01:54:05 40° S 02:07:27 10° SE visible
15 Jul - 04:12:26 10° WSW 04:21:12 23° SSW 04:34:23 10° SSE visible
15 Jul - 22:12:38 10° SW 22:17:02 32° SSE 22:23:37 10° ESE visible
16 Jul - 00:35:34 10° WSW 00:41:43 42° S 00:52:45 10° ESE visible
16 Jul - 03:00:00 10° WSW 03:07:59 29° SSW 03:21:12 10° SSE visible
16 Jul - 05:31:41 10° SW 05:35:41 11° SW 05:40:13 10° SSW visible
16 Jul - 21:02:19 10° SSW 21:05:43 20° SSE 21:09:57 10° ESE daylight
16 Jul - 23:24:36 10° WSW 23:29:46 40° S 23:38:22 10° ESE visible
17 Jul - 01:48:17 10° WSW 01:55:13 34° SSW 02:07:12 10° SE visible
17 Jul - 04:15:09 10° WSW 04:22:13 17° SSW 04:31:52 10° S visible
17 Jul - 19:53:16 10° SSE 19:54:28 11° SSE 19:55:44 10° SE daylight
17 Jul - 22:13:48 10° SW 22:18:09 33° SSE 22:24:33 10° ESE visible
18 Jul - 00:37:01 10° WSW 00:42:52 37° S 00:53:00 10° SE visible
18 Jul - 03:02:01 10° WSW 03:09:05 22° SSW 03:19:52 10° SSE visible
18 Jul - 21:03:10 10° SW 21:06:46 24° SSE 21:11:14 10° ESE daylight
18 Jul - 23:25:58 10° WSW 23:30:56 37° S 23:38:59 10° ESE visible
19 Jul - 01:50:01 10° WSW 01:56:21 27° SSW 02:06:41 10° SSE visible
19 Jul - 04:19:48 10° SW 04:23:17 11° SSW 04:27:17 10° SSW visible
19 Jul - 19:53:00 10° S 19:55:28 15° SSE 19:58:04 10° ESE daylight
19 Jul - 22:15:02 10° WSW 22:19:18 33° S 22:25:27 10° ESE visible
20 Jul - 00:38:33 10° WSW 00:44:03 31° S 00:53:04 10° SE visible
20 Jul - 03:04:37 10° WSW 03:10:13 16° SSW 03:17:52 10° S visible
20 Jul - 21:04:09 10° SW 21:07:53 26° SSE 21:12:25 10° ESE daylight
20 Jul - 23:27:23 10° WSW 23:32:07 33° S 23:39:30 10° SE visible
21 Jul - 01:51:59 10° WSW 01:57:32 21° SSW 02:05:47 10° SSE visible
21 Jul - 19:53:26 10° SSW 19:56:32 18° SSE 19:59:44 10° ESE daylight
21 Jul - 22:16:20 10° WSW 22:20:28 32° S 22:26:17 10° ESE visible
22 Jul - 00:40:14 10° WSW 00:45:15 25° SSW 00:52:55 10° SE visible
22 Jul - 03:09:25 10° SW 03:11:23 11° SSW 03:13:32 10° SSW night (unlit)
22 Jul - 18:43:17 10° S 18:45:06 12° SSE 18:46:49 10° SE daylight
22 Jul - 21:05:15 10° SW 21:09:01 28° S 21:13:31 10° ESE daylight
22 Jul - 23:28:53 10° WSW 23:33:19 28° S 23:39:53 10° SE visible
23 Jul - 01:54:34 10° SW 01:58:44 15° SSW 02:04:12 10° S night (unlit)
23 Jul - 19:54:08 10° SW 19:57:39 22° SSE 20:01:11 10° ESE daylight
23 Jul - 22:17:40 10° WSW 22:21:40 29° S 22:27:02 10° SE visible
